"Data set title: Gaging station water sample data. Usage: Event based table used with water chemistry collection from 01-Oct-2020 to 30-Sep-2021",,,,,,,,,,,,
,,,,,,,,,,,,,
"Site","Date","RecNum","SiteID","Flag_SiteID","LOGGERID","PROGID","VNOTCH_INST_0_0_01","Flag_VNOTCH_INST_0_0_01","SAMPLE_INST_0_0_01","Flag_SAMPLE_INST_0_0_01","STAGE_INST_0_0_01","Flag_STAGE_INST_0_0_01"
"","yyyy-MM-dd HH:mm:ss","count","","none","none","none","none","none","count","none","ft","none"
"nominal","datetime","nominal","data","code","nominal","nominal","data","code","data","code","data","code"
"GSWS02_116",2020-10-01 12:13:30,681,102.00,"",116,20007.0,0,"",22,"",0.0300,""
"GSWS02_116",2020-10-02 01:31:30,682,102.00,"",116,20007.0,0,"",23,"",0.0300,""
"GSWS02_116",2020-10-02 14:49:30,683,102.00,"",116,20007.0,0,"",24,"",0.0300,""
"GSWS02_116",2020-10-03 04:07:30,684,102.00,"",116,20007.0,0,"",25,"",0.0300,""
"GSWS02_116",2020-10-03 17:25:30,685,102.00,"",116,20007.0,0,"",26,"",0.0300,""
"GSWS02_116",2020-10-04 06:43:30,686,102.00,"",116,20007.0,0,"",27,"",0.0300,""
"GSWS02_116",2020-10-04 20:01:30,687,102.00,"",116,20007.0,0,"",28,"",0.0300,""
"GSWS02_116",2020-10-05 09:19:30,688,102.00,"",116,20007.0,0,"",29,"",0.0300,""
"GSWS02_116",2020-10-05 22:37:30,689,102.00,"",116,20007.0,0,"",30,"",0.0300,""
"GSWS02_116",2020-10-06 11:55:30,690,102.00,"",116,20007.0,0,"",31,"",0.0300,""
"GSWS02_116",2020-10-07 01:13:30,691,102.00,"",116,20007.0,0,"",32,"",0.0300,""
"GSWS02_116",2020-10-07 08:31:15,692,102.00,"",116,20007.0,0,"",33,"",0.0290,""
"GSWS02_116",2020-10-07 14:31:45,693,102.00,"",116,52499.0,0,"",1,"",0.0290,""
"GSWS02_116",2020-10-08 03:49:45,694,102.00,"",116,52499.0,0,"",2,"",0.0290,""
"GSWS02_116",2020-10-08 17:07:45,695,102.00,"",116,52499.0,0,"",3,"",0.0290,""
"GSWS02_116",2020-10-09 06:25:45,696,102.00,"",116,52499.0,0,"",4,"",0.0290,""
"GSWS02_116",2020-10-09 19:43:45,697,102.00,"",116,52499.0,0,"",5,"",0.0290,""
"GSWS02_116",2020-10-10 09:01:45,698,102.00,"",116,52499.0,0,"",6,"",0.1100,""
"GSWS02_116",2020-10-10 22:19:45,699,102.00,"",116,52499.0,0,"",7,"",0.0840,""
"GSWS02_116",2020-10-11 11:37:45,700,102.00,"",116,52499.0,0,"",8,"",0.0810,""
"GSWS02_116",2020-10-12 00:55:45,701,102.00,"",116,52499.0,0,"",9,"",0.1420,""
"GSWS02_116",2020-10-12 14:13:45,702,102.00,"",116,52499.0,0,"",10,"",0.0720,""
"GSWS02_116",2020-10-13 03:31:45,703,102.00,"",116,52499.0,0,"",11,"",0.0550,""
"GSWS02_116",2020-10-13 16:49:45,704,102.00,"",116,52499.0,0,"",12,"",0.1430,""
"GSWS02_116",2020-10-14 06:07:45,705,102.00,"",116,52499.0,0,"",13,"",0.0880,""
"GSWS02_116",2020-10-14 19:25:45,706,102.00,"",116,52499.0,0,"",14,"",0.0680,""
"GSWS02_116",2020-10-15 08:43:45,707,102.00,"",116,52499.0,0,"",15,"",0.0580,""
"GSWS02_116",2020-10-15 22:01:45,708,102.00,"",116,52499.0,0,"",16,"",0.0520,""
"GSWS02_116",2020-10-16 11:19:45,709,102.00,"",116,52499.0,0,"",17,"",0.0480,""
"GSWS02_116",2020-10-17 00:37:45,710,102.00,"",116,52499.0,0,"",18,"",0.0460,""
"GSWS02_116",2020-10-17 13:55:45,711,102.00,"",116,52499.0,0,"",19,"",0.0440,""
"GSWS02_116",2020-10-18 03:13:45,712,102.00,"",116,52499.0,0,"",20,"",0.0430,""
"GSWS02_116",2020-10-18 16:31:45,713,102.00,"",116,52499.0,0,"",21,"",0.0410,""
"GSWS02_116",2020-10-19 05:49:45,714,102.00,"",116,52499.0,0,"",22,"",0.0410,""
"GSWS02_116",2020-10-19 19:07:45,715,102.00,"",116,52499.0,0,"",23,"",0.0390,""
"GSWS02_116",2020-10-20 08:25:45,716,102.00,"",116,52499.0,0,"",24,"",0.0320,""
"GSWS02_116",2020-10-20 21:43:45,717,102.00,"",116,52499.0,0,"",25,"",0.0300,""
"GSWS02_116",2020-10-21 11:01:45,718,102.00,"",116,52499.0,0,"",26,"",0.0290,""
"GSWS02_116",2020-10-22 00:19:45,719,102.00,"",116,52499.0,0,"",27,"",0.0280,""
"GSWS02_116",2020-10-22 13:37:45,720,102.00,"",116,52499.0,0,"",28,"",0.0280,""
"GSWS02_116",2020-10-23 02:55:45,721,102.00,"",116,52499.0,0,"",29,"",0.0270,""
"GSWS02_116",2020-10-23 16:13:45,722,102.00,"",116,52499.0,0,"",30,"",0.0270,""
"GSWS02_116",2020-10-24 05:31:45,723,102.00,"",116,52499.0,0,"",31,"",0.0450,""
"GSWS02_116",2020-10-24 18:49:45,724,102.00,"",116,52499.0,0,"",32,"",0.0330,""
"GSWS02_116",2020-10-25 08:07:45,725,102.00,"",116,52499.0,0,"",33,"",0.0280,""
"GSWS02_116",2020-10-25 21:25:45,726,102.00,"",116,52499.0,0,"",34,"",0.0270,""
"GSWS02_116",2020-10-26 10:43:45,727,102.00,"",116,52499.0,0,"",35,"",0.0270,""
"GSWS02_116",2020-10-27 00:01:45,728,102.00,"",116,52499.0,0,"",36,"",0.0260,""
"GSWS02_116",2020-10-27 13:19:45,729,102.00,"",116,52499.0,0,"",37,"",0.0260,""
"GSWS02_116",2020-10-27 16:36:30,730,102.00,"",116,52499.0,0,"",38,"",0.0250,""
"GSWS02_116",2020-10-28 02:37:45,731,102.00,"",116,52499.0,0,"",1,"",0.0250,""
"GSWS02_116",2020-10-28 15:55:45,732,102.00,"",116,52499.0,0,"",2,"",0.0250,""
"GSWS02_116",2020-10-29 05:13:45,733,102.00,"",116,52499.0,0,"",3,"",0.0250,""
"GSWS02_116",2020-10-29 18:31:45,734,102.00,"",116,52499.0,0,"",4,"",0.0250,""
"GSWS02_116",2020-10-30 07:49:45,735,102.00,"",116,52499.0,0,"",5,"",0.0240,""
"GSWS02_116",2020-10-30 21:07:45,736,102.00,"",116,52499.0,0,"",6,"",0.0240,""
"GSWS02_116",2020-10-31 10:25:45,737,102.00,"",116,52499.0,0,"",7,"",0.0240,""
"GSWS02_116",2020-10-31 23:43:45,738,102.00,"",116,52499.0,0,"",8,"",0.0240,""
"GSWS02_116",2020-11-01 13:01:45,739,102.00,"",116,52499.0,0,"",9,"",0.0240,""
"GSWS02_116",2020-11-02 02:19:45,740,102.00,"",116,52499.0,0,"",10,"",0.0230,""
"GSWS02_116",2020-11-02 15:37:45,741,102.00,"",116,52499.0,0,"",11,"",0.0230,""
"GSWS02_116",2020-11-03 04:55:45,742,102.00,"",116,52499.0,0,"",12,"",0.0230,""
"GSWS02_116",2020-11-03 18:13:45,743,102.00,"",116,52499.0,0,"",13,"",0.0220,""
"GSWS02_116",2020-11-04 07:31:45,744,102.00,"",116,52499.0,0,"",14,"",0.0230,""
"GSWS02_116",2020-11-04 20:49:45,745,102.00,"",116,52499.0,0,"",15,"",0.0220,""
"GSWS02_116",2020-11-05 10:07:45,746,102.00,"",116,52499.0,0,"",16,"",0.0220,""
"GSWS02_116",2020-11-05 23:25:45,747,102.00,"",116,52499.0,0,"",17,"",0.0720,""
"GSWS02_116",2020-11-06 12:43:45,748,102.00,"",116,52499.0,0,"",18,"",0.0500,""
"GSWS02_116",2020-11-07 02:01:45,749,102.00,"",116,52499.0,0,"",19,"",0.0410,""
"GSWS02_116",2020-11-07 15:19:45,750,102.00,"",116,52499.0,0,"",20,"",0.0350,""
"GSWS02_116",2020-11-08 04:37:45,751,102.00,"",116,52499.0,0,"",21,"",0.0430,""
"GSWS02_116",2020-11-08 17:55:45,752,102.00,"",116,52499.0,0,"",22,"",0.0350,""
"GSWS02_116",2020-11-09 07:13:45,753,102.00,"",116,52499.0,0,"",23,"",0.0320,""
"GSWS02_116",2020-11-09 20:31:45,754,102.00,"",116,52499.0,0,"",24,"",0.0300,""
"GSWS02_116",2020-11-10 09:49:45,755,102.00,"",116,52499.0,0,"",25,"",0.0470,""
"GSWS02_116",2020-11-10 23:07:45,756,102.00,"",116,52499.0,0,"",26,"",0.1220,""
"GSWS02_116",2020-11-11 12:25:45,757,102.00,"",116,52499.0,0,"",27,"",0.0860,""
"GSWS02_116",2020-11-12 01:43:45,758,102.00,"",116,52499.0,0,"",28,"",0.0680,""
"GSWS02_116",2020-11-12 15:01:45,759,102.00,"",116,52499.0,0,"",29,"",0.0580,""
"GSWS02_116",2020-11-13 04:19:45,760,102.00,"",116,52499.0,0,"",30,"",0.0790,""
"GSWS02_116",2020-11-13 10:57:45,761,102.00,"",116,52499.0,0,"",31,"",0.3120,""
"GSWS02_116",2020-11-14 00:15:45,762,102.00,"",116,52499.0,0,"",32,"",0.2400,""
"GSWS02_116",2020-11-14 13:33:30,763,102.00,"",116,52499.0,0,"",33,"",0.2130,""
"GSWS02_116",2020-11-14 20:11:30,764,102.00,"",116,52499.0,0,"",34,"",0.3950,""
"GSWS02_116",2020-11-15 00:37:30,765,102.00,"",116,52499.0,0,"",35,"",0.5000,""
"GSWS02_116",2020-11-15 05:03:30,766,102.00,"",116,52499.0,0,"",36,"",0.4800,""
"GSWS02_116",2020-11-15 11:41:30,767,102.00,"",116,52499.0,0,"",37,"",0.4020,""
"GSWS02_116",2020-11-15 18:19:30,768,102.00,"",116,52499.0,0,"",38,"",0.3410,""
"GSWS02_116",2020-11-16 07:37:30,769,102.00,"",116,52499.0,0,"",39,"",0.2670,""
"GSWS02_116",2020-11-16 20:55:30,770,102.00,"",116,52499.0,0,"",40,"",0.2190,""
"GSWS02_116",2020-11-17 10:13:30,771,102.00,"",116,52499.0,0,"",41,"",0.1910,""
"GSWS02_116",2020-11-17 16:12:45,772,102.00,"",116,52499.0,0,"",42,"",0.2010,""
"GSWS02_116",2020-11-17 23:31:30,773,102.00,"",116,52499.0,0,"",1,"",0.1900,""
"GSWS02_116",2020-11-18 12:49:15,774,102.00,"",116,52499.0,0,"",2,"",0.2050,""
"GSWS02_116",2020-11-19 02:07:15,775,102.00,"",116,52499.0,0,"",3,"",0.2400,""
"GSWS02_116",2020-11-19 15:25:15,776,102.00,"",116,52499.0,0,"",4,"",0.2430,""
"GSWS02_116",2020-11-20 04:43:15,777,102.00,"",116,52499.0,0,"",5,"",0.2170,""
"GSWS02_116",2020-11-20 18:01:15,778,102.00,"",116,52499.0,0,"",6,"",0.1910,""
"GSWS02_116",2020-11-21 07:19:15,779,102.00,"",116,52499.0,0,"",7,"",0.1710,""
"GSWS02_116",2020-11-21 20:37:15,780,102.00,"",116,52499.0,0,"",8,"",0.1550,""
"GSWS02_116",2020-11-22 09:55:15,781,102.00,"",116,52499.0,0,"",9,"",0.1420,""
"GSWS02_116",2020-11-22 23:13:15,782,102.00,"",116,52499.0,0,"",10,"",0.1310,""
"GSWS02_116",2020-11-23 12:31:15,783,102.00,"",116,52499.0,0,"",11,"",0.1230,""
"GSWS02_116",2020-11-24 01:49:15,784,102.00,"",116,52499.0,0,"",12,"",0.1150,""
"GSWS02_116",2020-11-24 15:07:15,785,102.00,"",116,52499.0,0,"",13,"",0.1080,""
"GSWS02_116",2020-11-25 04:25:15,786,102.00,"",116,52499.0,0,"",14,"",0.1330,""
"GSWS02_116",2020-11-25 17:43:15,787,102.00,"",116,52499.0,0,"",15,"",0.1940,""
"GSWS02_116",2020-11-26 07:01:15,788,102.00,"",116,52499.0,0,"",16,"",0.1870,""
"GSWS02_116",2020-11-26 20:19:15,789,102.00,"",116,52499.0,0,"",17,"",0.1760,""
"GSWS02_116",2020-11-27 09:37:15,790,102.00,"",116,52499.0,0,"",18,"",0.1610,""
"GSWS02_116",2020-11-27 22:55:15,791,102.00,"",116,52499.0,0,"",19,"",0.1470,""
"GSWS02_116",2020-11-28 12:13:15,792,102.00,"",116,52499.0,0,"",20,"",0.1340,""
"GSWS02_116",2020-11-29 01:31:15,793,102.00,"",116,52499.0,0,"",21,"",0.1250,""
"GSWS02_116",2020-11-29 14:49:15,794,102.00,"",116,52499.0,0,"",22,"",0.1190,""
"GSWS02_116",2020-11-30 04:07:15,795,102.00,"",116,52499.0,0,"",23,"",0.1130,""
"GSWS02_116",2020-11-30 17:25:15,796,102.00,"",116,52499.0,0,"",24,"",0.1340,""
"GSWS02_116",2020-12-01 06:43:15,797,102.00,"",116,52499.0,0,"",25,"",0.1210,""
"GSWS02_116",2020-12-01 20:01:15,798,102.00,"",116,52499.0,0,"",26,"",0.1170,""
"GSWS02_116",2020-12-02 09:19:15,799,102.00,"",116,52499.0,0,"",27,"",0.1120,""
"GSWS02_116",2020-12-02 22:37:15,800,102.00,"",116,52499.0,0,"",28,"",0.1070,""
"GSWS02_116",2020-12-03 11:55:15,801,102.00,"",116,52499.0,0,"",29,"",0.1020,""
"GSWS02_116",2020-12-04 01:13:15,802,102.00,"",116,52499.0,0,"",30,"",0.0980,""
"GSWS02_116",2020-12-04 14:31:15,803,102.00,"",116,52499.0,0,"",31,"",0.0940,""
"GSWS02_116",2020-12-05 03:49:15,804,102.00,"",116,52499.0,0,"",32,"",0.0910,""
"GSWS02_116",2020-12-05 17:07:15,805,102.00,"",116,52499.0,0,"",33,"",0.0890,""
"GSWS02_116",2020-12-06 06:25:15,806,102.00,"",116,52499.0,0,"",34,"",0.1200,""
"GSWS02_116",2020-12-06 19:43:15,807,102.00,"",116,52499.0,0,"",35,"",0.0950,""
"GSWS02_116",2020-12-07 09:01:15,808,102.00,"",116,52499.0,0,"",36,"",0.0910,""
"GSWS02_116",2020-12-07 22:19:15,809,102.00,"",116,52499.0,0,"",37,"",0.0890,""
"GSWS02_116",2020-12-08 11:37:15,810,102.00,"",116,52499.0,0,"",38,"",0.0870,""
"GSWS02_116",2020-12-08 13:49:15,811,102.00,"",116,52499.0,0,"",39,"",0.0870,""
"GSWS02_116",2020-12-09 09:56:00,812,102.00,"",116,52499.0,0,"",1,"",0.0880,""
"GSWS02_116",2020-12-09 10:09:00,813,102.00,"",116,52499.0,0,"",2,"",0.0870,""
"GSWS02_116",2020-12-09 10:14:15,814,102.00,"",116,52499.0,0,"",3,"",0.0870,""
"GSWS02_116",2020-12-09 23:32:15,815,102.00,"",116,52499.0,0,"",2,"",0.0850,""
"GSWS02_116",2020-12-10 12:50:15,816,102.00,"",116,52499.0,0,"",3,"",0.0850,""
"GSWS02_116",2020-12-11 02:08:15,817,102.00,"",116,52499.0,0,"",4,"",0.0930,""
"GSWS02_116",2020-12-11 15:26:15,818,102.00,"",116,52499.0,0,"",5,"",0.1000,""
"GSWS02_116",2020-12-12 04:44:15,819,102.00,"",116,52499.0,0,"",6,"",0.1040,""
"GSWS02_116",2020-12-12 18:02:15,820,102.00,"",116,52499.0,0,"",7,"",0.0990,""
"GSWS02_116",2020-12-13 07:20:15,821,102.00,"",116,52499.0,0,"",8,"",0.1530,""
"GSWS02_116",2020-12-13 20:38:15,822,102.00,"",116,52499.0,0,"",9,"",0.2140,""
"GSWS02_116",2020-12-14 09:56:15,823,102.00,"",116,52499.0,0,"",10,"",0.2100,""
"GSWS02_116",2020-12-14 23:14:15,824,102.00,"",116,52499.0,0,"",11,"",0.1920,""
"GSWS02_116",2020-12-15 12:32:15,825,102.00,"",116,52499.0,0,"",12,"",0.2250,""
"GSWS02_116",2020-12-16 01:50:15,826,102.00,"",116,52499.0,0,"",13,"",0.2170,""
"GSWS02_116",2020-12-16 15:08:15,827,102.00,"",116,52499.0,0,"",14,"",0.2190,""
"GSWS02_116",2020-12-17 04:26:15,828,102.00,"",116,52499.0,0,"",15,"",0.2810,""
"GSWS02_116",2020-12-17 17:44:15,829,102.00,"",116,52499.0,0,"",16,"",0.2820,""
"GSWS02_116",2020-12-18 07:02:15,830,102.00,"",116,52499.0,0,"",17,"",0.2640,""
"GSWS02_116",2020-12-18 20:20:15,831,102.00,"",116,52499.0,0,"",18,"",0.2510,""
"GSWS02_116",2020-12-19 09:38:15,832,102.00,"",116,52499.0,0,"",19,"",0.2530,""
"GSWS02_116",2020-12-19 20:35:30,833,102.00,"",116,52499.0,0,"",20,"",0.2970,""
"GSWS02_116",2020-12-20 02:18:30,834,102.00,"",116,52499.0,0,"",21,"",0.4350,""
"GSWS02_116",2020-12-20 06:15:15,835,102.00,"",116,52499.0,0,"",22,"",0.5610,""
"GSWS02_116",2020-12-20 09:37:15,836,102.00,"",116,52499.0,0,"",23,"",0.6260,""
"GSWS02_116",2020-12-20 12:19:15,837,102.00,"",116,52499.0,0,"",24,"",0.7140,""
"GSWS02_116",2020-12-20 14:33:15,838,102.00,"",116,52499.0,0,"",25,"",0.7570,""
"GSWS02_116",2020-12-20 16:47:15,839,102.00,"",116,52499.0,0,"",26,"",0.7490,""
"GSWS02_116",2020-12-20 19:29:15,840,102.00,"",116,52499.0,0,"",27,"",0.7210,""
"GSWS02_116",2020-12-20 22:11:15,841,102.00,"",116,52499.0,0,"",28,"",0.6970,""
"GSWS02_116",2020-12-21 00:53:15,842,102.00,"",116,52499.0,0,"",29,"",0.6590,""
"GSWS02_116",2020-12-21 04:15:15,843,102.00,"",116,52499.0,0,"",30,"",0.6080,""
"GSWS02_116",2020-12-21 07:37:15,844,102.00,"",116,52499.0,0,"",31,"",0.5700,""
"GSWS02_116",2020-12-21 12:03:15,845,102.00,"",116,52499.0,0,"",32,"",0.5300,""
"GSWS02_116",2020-12-21 16:29:00,846,102.00,"",116,52499.0,0,"",33,"",0.4950,""
"GSWS02_116",2020-12-21 20:55:00,847,102.00,"",116,52499.0,0,"",34,"",0.4850,""
"GSWS02_116",2020-12-22 01:21:00,848,102.00,"",116,52499.0,0,"",35,"",0.4480,""
"GSWS02_116",2020-12-22 07:59:00,849,102.00,"",116,52499.0,0,"",36,"",0.4120,""
"GSWS02_116",2020-12-22 14:37:00,850,102.00,"",116,52499.0,0,"",37,"",0.3800,""
"GSWS02_116",2020-12-22 21:15:00,851,102.00,"",116,52499.0,0,"",38,"",0.3510,""
"GSWS02_116",2020-12-23 03:53:00,852,102.00,"",116,52499.0,0,"",39,"",0.3270,""
"GSWS02_116",2020-12-23 10:31:00,853,102.00,"",116,52499.0,0,"",40,"",0.3060,""
"GSWS02_116",2020-12-23 23:49:00,854,102.00,"",116,52499.0,0,"",41,"",0.2720,""
"GSWS02_116",2020-12-24 13:07:00,855,102.00,"",116,52499.0,0,"",42,"",0.2450,""
"GSWS02_116",2020-12-25 02:25:00,856,102.00,"",116,52499.0,0,"",43,"",0.2260,""
"GSWS02_116",2020-12-25 15:43:00,857,102.00,"",116,52499.0,0,"",44,"",0.2150,""
"GSWS02_116",2020-12-26 05:01:00,858,102.00,"",116,52499.0,0,"",45,"",0.2420,""
"GSWS02_116",2020-12-26 18:19:00,859,102.00,"",116,52499.0,0,"",46,"",0.2280,""
"GSWS02_116",2020-12-27 07:37:00,860,102.00,"",116,52499.0,0,"",47,"",0.2190,""
"GSWS02_116",2020-12-27 20:55:00,861,102.00,"",116,52499.0,0,"",48,"",0.2080,""
"GSWS02_116",2020-12-28 10:13:00,862,102.00,"",116,52499.0,0,"",49,"",0.1970,""
"GSWS02_116",2020-12-28 23:31:00,863,102.00,"",116,52499.0,0,"",50,"",0.1850,""
"GSWS02_116",2020-12-29 12:49:00,864,102.00,"",116,52499.0,0,"",51,"",0.1750,""
"GSWS02_116",2020-12-30 02:07:00,865,102.00,"",116,52499.0,0,"",52,"",0.1670,""
"GSWS02_116",2020-12-30 14:54:30,866,102.00,"",116,52499.0,0,"",53,"",0.2210,""
"GSWS02_116",2020-12-30 14:54:45,867,102.00,"",116,52499.0,0,"",54,"",0.2210,""
"GSWS02_116",2020-12-30 15:25:00,868,102.00,"",116,52499.0,0,"",1,"",0.2130,""
"GSWS02_116",2020-12-31 04:43:00,869,102.00,"",116,52499.0,0,"",2,"",0.2550,""
"GSWS02_116",2020-12-31 18:01:00,870,102.00,"",116,52499.0,0,"",3,"",0.2670,""
"GSWS02_116",2021-01-01 07:19:00,871,102.00,"",116,52499.0,0,"",4,"",0.2510,""
"GSWS02_116",2021-01-01 20:37:00,872,102.00,"",116,52499.0,0,"",5,"",0.2760,""
"GSWS02_116",2021-01-02 09:55:00,873,102.00,"",116,52499.0,0,"",6,"",0.2720,""
"GSWS02_116",2021-01-02 19:51:30,874,102.00,"",116,52499.0,0,"",7,"",0.2970,""
"GSWS02_116",2021-01-03 02:29:30,875,102.00,"",116,52499.0,0,"",8,"",0.3690,""
"GSWS02_116",2021-01-03 09:07:30,876,102.00,"",116,52499.0,0,"",9,"",0.4210,""
"GSWS02_116",2021-01-03 15:45:30,877,102.00,"",116,52499.0,0,"",10,"",0.4100,""
"GSWS02_116",2021-01-03 22:23:30,878,102.00,"",116,52499.0,0,"",11,"",0.3870,""
"GSWS02_116",2021-01-04 05:01:30,879,102.00,"",116,52499.0,0,"",12,"",0.3620,""
"GSWS02_116",2021-01-04 11:21:45,880,102.00,"",116,52499.0,0,"",13,"",0.4360,""
"GSWS02_116",2021-01-04 17:59:45,881,102.00,"",116,52499.0,0,"",14,"",0.3870,""
"GSWS02_116",2021-01-05 00:37:45,882,102.00,"",116,52499.0,0,"",15,"",0.3890,""
"GSWS02_116",2021-01-05 07:15:45,883,102.00,"",116,52499.0,0,"",16,"",0.3740,""
"GSWS02_116",2021-01-05 13:53:45,884,102.00,"",116,52499.0,0,"",17,"",0.3580,""
"GSWS02_116",2021-01-05 20:31:45,885,102.00,"",116,52499.0,0,"",18,"",0.3410,""
"GSWS02_116",2021-01-06 03:09:45,886,102.00,"",116,52499.0,0,"",19,"",0.3220,""
"GSWS02_116",2021-01-06 09:47:45,887,102.00,"",116,52499.0,0,"",20,"",0.3060,""
"GSWS02_116",2021-01-06 16:25:45,888,102.00,"",116,52499.0,0,"",21,"",0.2970,""
"GSWS02_116",2021-01-06 23:03:45,889,102.00,"",116,52499.0,0,"",22,"",0.3140,""
"GSWS02_116",2021-01-07 05:41:45,890,102.00,"",116,52499.0,0,"",23,"",0.3150,""
"GSWS02_116",2021-01-07 12:19:45,891,102.00,"",116,52499.0,0,"",24,"",0.3090,""
"GSWS02_116",2021-01-07 18:57:45,892,102.00,"",116,52499.0,0,"",25,"",0.3020,""
"GSWS02_116",2021-01-08 05:50:45,893,102.00,"",116,52499.0,0,"",26,"",0.2970,""
"GSWS02_116",2021-01-08 12:28:45,894,102.00,"",116,52499.0,0,"",27,"",0.2970,""
"GSWS02_116",2021-01-09 01:46:45,895,102.00,"",116,52499.0,0,"",28,"",0.2780,""
"GSWS02_116",2021-01-09 15:04:45,896,102.00,"",116,52499.0,0,"",29,"",0.2640,""
"GSWS02_116",2021-01-10 04:22:45,897,102.00,"",116,52499.0,0,"",30,"",0.2470,""
"GSWS02_116",2021-01-10 17:40:45,898,102.00,"",116,52499.0,0,"",31,"",0.2300,""
"GSWS02_116",2021-01-11 06:58:45,899,102.00,"",116,52499.0,0,"",32,"",0.2160,""
"GSWS02_116",2021-01-11 20:16:45,900,102.00,"",116,52499.0,0,"",33,"",0.2090,""
"GSWS02_116",2021-01-12 06:55:45,901,102.00,"",116,52499.0,0,"",34,"",0.2970,""
"GSWS02_116",2021-01-12 13:14:15,902,102.00,"",116,52499.0,0,"",35,"",0.4360,""
"GSWS02_116",2021-01-12 17:40:15,903,102.00,"",116,52499.0,0,"",36,"",0.5460,""
"GSWS02_116",2021-01-12 21:02:15,904,102.00,"",116,52499.0,0,"",37,"",0.5620,""
"GSWS02_116",2021-01-13 00:50:00,905,102.00,"",116,52499.0,0,"",38,"",0.5620,""
"GSWS02_116",2021-01-13 04:12:00,906,102.00,"",116,52499.0,0,"",39,"",0.5720,""
"GSWS02_116",2021-01-13 08:38:00,907,102.00,"",116,52499.0,0,"",40,"",0.5480,""
"GSWS02_116",2021-01-13 13:04:00,908,102.00,"",116,52499.0,0,"",41,"",0.5230,""
"GSWS02_116",2021-01-13 17:30:00,909,102.00,"",116,52499.0,0,"",42,"",0.4870,""
"GSWS02_116",2021-01-13 21:56:00,910,102.00,"",116,52499.0,0,"",43,"",0.4540,""
"GSWS02_116",2021-01-14 04:34:00,911,102.00,"",116,52499.0,0,"",44,"",0.4160,""
"GSWS02_116",2021-01-14 11:12:00,912,102.00,"",116,52499.0,0,"",45,"",0.3820,""
"GSWS02_116",2021-01-14 17:50:00,913,102.00,"",116,52499.0,0,"",46,"",0.3530,""
"GSWS02_116",2021-01-15 00:28:00,914,102.00,"",116,52499.0,0,"",47,"",0.3300,""
"GSWS02_116",2021-01-15 07:06:00,915,102.00,"",116,52499.0,0,"",48,"",0.3090,""
"GSWS02_116",2021-01-15 20:23:45,916,102.00,"",116,52499.0,0,"",49,"",0.2760,""
"GSWS02_116",2021-01-16 09:41:45,917,102.00,"",116,52499.0,0,"",50,"",0.2480,""
"GSWS02_116",2021-01-16 22:59:45,918,102.00,"",116,52499.0,0,"",51,"",0.2300,""
"GSWS02_116",2021-01-17 12:17:45,919,102.00,"",116,52499.0,0,"",52,"",0.2130,""
"GSWS02_116",2021-01-18 01:35:45,920,102.00,"",116,52499.0,0,"",53,"",0.2000,""
"GSWS02_116",2021-01-18 14:53:45,921,102.00,"",116,52499.0,0,"",54,"",0.1890,""
"GSWS02_116",2021-01-19 04:11:45,922,102.00,"",116,52499.0,0,"",55,"",0.1770,""
"GSWS02_116",2021-01-19 17:29:45,923,102.00,"",116,52499.0,0,"",56,"",0.1690,""
"GSWS02_116",2021-01-20 06:47:45,924,102.00,"",116,52499.0,0,"",57,"",0.1610,""
"GSWS02_116",2021-01-20 20:05:45,925,102.00,"",116,52499.0,0,"",58,"",0.1530,""
"GSWS02_116",2021-01-21 09:23:45,926,102.00,"",116,52499.0,0,"",59,"",0.1470,""
"GSWS02_116",2021-01-21 22:41:45,927,102.00,"",116,52499.0,0,"",60,"",0.1410,""
"GSWS02_116",2021-01-22 11:14:00,928,102.00,"",116,52499.0,0,"",61,"",0.1350,""
"GSWS02_116",2021-01-22 11:59:45,929,102.00,"",116,52499.0,0,"",1,"",0.1340,""
"GSWS02_116",2021-01-23 01:17:45,930,102.00,"",116,52499.0,0,"",2,"",0.1290,""
"GSWS02_116",2021-01-23 14:35:45,931,102.00,"",116,52499.0,0,"",3,"",0.1240,""
"GSWS02_116",2021-01-24 03:53:45,932,102.00,"",116,52499.0,0,"",4,"",0.1210,""
"GSWS02_116",2021-01-24 17:11:45,933,102.00,"",116,52499.0,0,"",5,"",0.1210,""
"GSWS02_116",2021-01-25 06:29:45,934,102.00,"",116,52499.0,0,"",6,"",0.1160,""
"GSWS02_116",2021-01-25 19:47:45,935,102.00,"",116,52499.0,0,"",7,"",0.1120,""
"GSWS02_116",2021-01-26 09:05:45,936,102.00,"",116,52499.0,0,"",8,"",0.1100,""
"GSWS02_116",2021-01-26 22:23:45,937,102.00,"",116,52499.0,0,"",9,"",0.1100,""
"GSWS02_116",2021-01-27 11:41:45,938,102.00,"",116,52499.0,0,"",10,"",0.1080,""
"GSWS02_116",2021-01-28 00:59:45,939,102.00,"",116,52499.0,0,"",11,"",0.1110,""
"GSWS02_116",2021-01-28 14:17:45,940,102.00,"",116,52499.0,0,"",12,"",0.1140,""
"GSWS02_116",2021-01-29 03:35:45,941,102.00,"",116,52499.0,0,"",13,"",0.1140,""
"GSWS02_116",2021-01-29 16:53:45,942,102.00,"",116,52499.0,0,"",14,"",0.1110,""
"GSWS02_116",2021-01-30 06:11:45,943,102.00,"",116,52499.0,0,"",15,"",0.1140,""
"GSWS02_116",2021-01-30 19:29:45,944,102.00,"",116,52499.0,0,"",16,"",0.1170,""
"GSWS02_116",2021-01-31 08:47:45,945,102.00,"",116,52499.0,0,"",17,"",0.1480,""
"GSWS02_116",2021-01-31 22:05:45,946,102.00,"",116,52499.0,0,"",18,"",0.1640,""
"GSWS02_116",2021-02-01 11:23:45,947,102.00,"",116,52499.0,0,"",19,"",0.1570,""
"GSWS02_116",2021-02-02 00:41:45,948,102.00,"",116,52499.0,0,"",20,"",0.1500,""
"GSWS02_116",2021-02-02 13:59:45,949,102.00,"",116,52499.0,0,"",21,"",0.1800,""
"GSWS02_116",2021-02-03 03:17:45,950,102.00,"",116,52499.0,0,"",22,"",0.1950,""
"GSWS02_116",2021-02-03 16:35:45,951,102.00,"",116,52499.0,0,"",23,"",0.1930,""
"GSWS02_116",2021-02-04 05:53:45,952,102.00,"",116,52499.0,0,"",24,"",0.1840,""
"GSWS02_116",2021-02-04 19:11:45,953,102.00,"",116,52499.0,0,"",25,"",0.1730,""
"GSWS02_116",2021-02-05 08:29:45,954,102.00,"",116,52499.0,0,"",26,"",0.1690,""
"GSWS02_116",2021-02-05 21:47:45,955,102.00,"",116,52499.0,0,"",27,"",0.1680,""
"GSWS02_116",2021-02-06 11:05:45,956,102.00,"",116,52499.0,0,"",28,"",0.1670,""
"GSWS02_116",2021-02-07 00:23:45,957,102.00,"",116,52499.0,0,"",29,"",0.1660,""
"GSWS02_116",2021-02-07 13:41:45,958,102.00,"",116,52499.0,0,"",30,"",0.1630,""
"GSWS02_116",2021-02-08 02:59:45,959,102.00,"",116,52499.0,0,"",31,"",0.1600,""
"GSWS02_116",2021-02-08 16:17:45,960,102.00,"",116,52499.0,0,"",32,"",0.1550,""
"GSWS02_116",2021-02-09 05:35:45,961,102.00,"",116,52499.0,0,"",33,"",0.1500,""
"GSWS02_116",2021-02-09 18:53:45,962,102.00,"",116,52499.0,0,"",34,"",0.1460,""
"GSWS02_116",2021-02-10 08:11:45,963,102.00,"",116,52499.0,0,"",35,"",0.1390,""
"GSWS02_116",2021-02-10 12:06:00,964,102.00,"",116,52499.0,0,"",36,"",0.1380,""
"GSWS02_116",2021-02-10 21:29:45,965,102.00,"",116,52499.0,0,"",1,"",0.1370,""
"GSWS02_116",2021-02-11 10:47:45,966,102.00,"",116,52499.0,0,"",2,"",0.1330,""
"GSWS02_116",2021-02-12 00:05:45,967,102.00,"",116,52499.0,0,"",3,"",0.1560,""
"GSWS02_116",2021-02-12 13:23:45,968,102.00,"",116,52499.0,0,"",4,"",0.1680,""
"GSWS02_116",2021-02-12 20:01:45,969,102.00,"",116,52499.0,0,"",5,"",0.3120,""